Tracking 18984 objects as of 24-Feb-2018
HD Live streaming from Space Station
objects crossing your sky now

APRIZESAT 8

Track APRIZESAT 8 now!
10-day predictions
APRIZESAT 8 is classified as:


NORAD ID: 39425
Int'l Code: 2013-066K
Perigee: 596.4 km
Apogee: 670.1 km
Inclination: 97.6 °
Period: 97.2 minutes
Semi major axis: 7004 km
RCS: Unknown
Launch date: November 21, 2013
Source: United States (US)
Launch site: Orenburg, Russia (OREN)
aabbcc
Your satellite tracking list
Your tracking list is empty




NASA's NSSDC Master Catalog

Two Line Element Set (TLE):
1 39425U 13066K   18055.16265823  .00000039  00000-0  11401-4 0  9994
2 39425  97.5971  91.7317 0052569 159.8981 200.4319 14.81015204230199
Source of the keplerian elements: AFSPC